Hourly Data Report for October 15, 2012

All times are specified in Local Standard Time (LST). Add 1 hour to adjust for Daylight Saving Time where and when it is observed.

ST LEONARD CS
NEW BRUNSWICK

47°09'28.050" N
67°49'55.014" W
245.00 m
810I001
71019
WIY

Download Data

Hourly Data (October 2012)
Hourly Data Report for October 15, 2012
Temp Definition
°C
Dew Point Temp Definition
°C
Rel Hum Definition
%
Wind Dir Definition
10's deg

Wind Spd Definition
km/h
Visibility Definition
km
Stn Press Definition
kPa
Hmdx Definition


Wind Chill Definition


Weather Definition


TIME
00:00 2.3 1.8 96 5 4   98.53     LegendNANA
01:00 2.4 1.9 96 9 9   98.41     LegendNANA
02:00 2.6 2.1 96 10 7   98.32     LegendNANA
03:00 2.7 2.3 97 11 7   98.23     LegendNANA
04:00 3.0 2.6 97 9 6   98.19     LegendNANA
05:00 3.2 2.8 97 10 7   98.14     LegendNANA
06:00 3.5 3.0 97 9 11   98.06     LegendNANA
07:00 3.7 3.2 97 10 11   97.94     LegendNANA
08:00 4.2 3.7 97 11 9   97.88     LegendNANA
09:00 4.8 4.3 97 11 7   97.78     LegendNANA
10:00 5.5 5.0 97 11 7   97.80     LegendNANA
11:00 6.3 5.9 97 11 7   97.74     LegendNANA
12:00 7.8 7.4 97 11 9   97.64     LegendNANA
13:00 8.9 8.5 97 12 11   97.54     LegendNANA
14:00 9.9 9.5 97 13 7   97.50     LegendNANA
15:00 10.8 10.4 97 13 6   97.47     LegendNANA
16:00 11.4 11.1 98 12 6   97.44     LegendNANA
17:00 11.9 11.6 98 14 6   97.43     LegendNANA
18:00 12.6 12.3 98 14 6   97.38     LegendNANA
19:00 13.0 12.7 98 13 4   97.35     LegendNANA
20:00 13.4 13.0 97 15 7   97.31     LegendNANA
21:00 14.2 13.8 97 16 11   97.28     LegendNANA
22:00 14.5 14.0 97 17 7   97.25     LegendNANA
23:00 14.8 14.4 97 17 9   97.20     LegendNANA

Notes on Data Quality.

Legend

  • E = Estimated
  • M = Missing
  • NA = Not Available
  • ‡ = Partner data that is not subject to review by the National Climate Archives
Date modified: